QPF
0.00 0.00 0.00 0.00 0.00 0.00 0.00 0.00 0.00 0.00 0.00 0.00 0.00 0.00 0.00 0.00 0.00 0.00 0.00 0.00 0.00 0.00 0.00 0.00 0.00 0.00 0.00 0.00 0.00 0.00 0.00 0.00 0.00 0.00 0.00 0.00 0.00 0.00 0.00 0.00 0.00 0.00 0.00 0.00 0.00
0.00 0.00 0.00 0.00 0.00 0.00 0.00 0.00 0.00 0.00 0.00 0.00 0.00 0.00 0.00 0.00 0.00 0.00 0.00 0.00 0.00 0.00 0.00 0.00 0.00 0.00 0.00 0.00 0.00 0.00 0.00 0.00 0.00 0.00 0.00 0.00 0.00 0.00 0.00 0.00 0.00 0.00 0.00 0.00 0.00
0.00 0.00 0.00 0.00 0.00 0.00 0.00 0.00 0.00 0.00 0.00 0.00 0.00 0.00 0.00 0.00 0.00 0.00 0.00 0.00 0.00 0.00 0.00 0.00 0.00 0.00 0.00 0.00 0.00 0.00 0.00 0.00 0.00 0.00 0.00 0.00 0.00 0.00 0.00 0.00 0.00 0.00 0.00 0.00 0.00
0.00 0.00 0.00 0.00 0.00 0.00 0.00 0.00 0.00 0.00 0.00 0.00 0.00 0.00 0.00 0.00 0.00 0.00 0.00 0.00 0.00 0.00 0.00 0.00 0.00 0.00 0.00 0.00 0.00 0.00 0.00 0.00 0.00 0.00 0.00 0.00 0.00 0.00 0.00 0.00 0.00 0.00 0.00 0.00 0.00
0.00 0.00 0.00 0.00 0.00 0.00 0.00 0.00 0.00 0.00 0.00 0.00 0.00 0.00 0.00 0.00 0.00 0.00 0.00 0.00 0.00 0.00 0.00 0.00 0.00 0.00 0.00 0.00 0.00 0.00 0.00 0.00 0.00 0.00 0.00 0.00 0.00 0.00 0.00 0.00 0.00 0.00 0.00 0.00 0.00
0.00 0.00 0.00 0.00 0.00 0.00 0.00 0.00 0.00 0.00 0.00 0.00 0.00 0.00 0.00 0.00 0.00 0.00 0.00 0.00 0.00 0.00 0.00 0.00 0.00 0.00 0.00 0.00 0.00 0.00 0.00 0.00 0.00 0.00 0.00 0.00 0.00 0.00 0.00 0.00 0.00 0.00 0.00 0.00 0.00
0.00 0.00 0.00 0.00 0.00 0.00 0.00 0.00 0.00 0.00 0.00 0.00 0.00 0.00 0.00 0.00 0.00 0.00 0.00 0.00 0.00 0.00 0.00 0.00 0.00 0.00 0.00 0.00 0.00 0.00 0.00 0.00 0.00 0.00 0.00 0.00 0.00 0.00 0.00 0.00 0.00 0.00 0.00 0.00 0.00
0.00 0.00 0.00 0.00 0.00 0.00 0.00 0.00 0.00 0.00 0.00 0.00 0.00 0.00 0.00 0.00 0.00 0.00 0.00 0.00 0.00 0.00 0.00 0.00 0.00 0.00 0.00 0.00 0.00 0.00 0.00 0.00 0.00 0.00 0.00 0.00 0.00 0.00 0.00 0.00 0.00 0.00 0.00 0.00 0.00
0.00 0.00 0.00 0.00 0.00 0.00 0.00 0.00 0.00 0.00 0.00 0.00 0.00 0.00 0.00 0.00 0.00 0.00 0.00 0.00 0.00 0.00 0.00 0.00 0.00 0.00 0.00 0.00 0.00 0.00 0.00 0.00 0.00 0.00 0.00 0.00 0.00 0.00 0.00 0.00 0.00 0.00 0.00 0.00 0.00
0.00 0.00 0.00 0.00 0.00 0.00 0.00 0.00 0.00 0.00 0.00 0.00 0.00 0.00 0.00 0.00 0.00 0.00 0.00 0.00 0.00 0.00 0.00 0.00 0.00 0.00 0.00 0.00 0.00 0.00 0.00 0.00 0.00 0.00 0.00 0.00 0.00 0.00 0.00 0.00 0.00 0.00 0.00 0.00 0.00
0.00 0.00 0.00 0.00 0.00 0.00 0.00 0.00 0.00 0.00 0.00 0.00 0.00 0.00 0.00 0.00 0.00 0.00 0.00 0.00 0.00 0.00 0.00 0.00 0.00 0.00 0.00 0.00 0.00 0.00 0.00 0.00 0.00 0.00 0.00 0.00 0.00 0.00 0.00 0.00 0.00 0.00 0.00 0.00 0.00
0.00 0.00 0.00 0.00 0.00 0.00 0.00 0.00 0.00 0.00 0.00 0.00 0.00 0.00 0.00 0.00 0.00 0.00 0.00 0.00 0.00 0.00 0.00 0.00 0.00 0.00 0.00 0.00 0.00 0.00 0.00 0.00 0.00 0.00 0.00 0.00 0.00 0.00 0.00 0.00 0.00 0.00 0.00 0.00 0.00
0.00 0.00 0.00 0.00 0.00 0.00 0.00 0.00 0.00 0.00 0.00 0.00 0.00 0.00 0.00 0.00 0.00 0.00 0.00 0.00 0.00 0.00 0.00 0.00 0.00 0.00 0.00 0.00 0.00 0.00 0.00 0.00 0.00 0.00 0.00 0.00 0.00 0.00 0.00 0.00 0.00 0.00 0.00 0.00 0.00
0.00 0.00 0.00 0.00 0.00 0.00 0.00 0.00 0.00 0.00 0.00 0.00 0.00 0.00 0.00 0.00 0.00 0.00 0.00 0.00 0.00 0.00 0.00 0.00 0.00 0.00 0.00 0.00 0.00 0.00 0.00 0.00 0.00 0.00 0.00 0.00 0.00 0.00 0.00 0.00 0.00 0.00 0.00 0.00 0.00
0.00 0.00 0.00 0.00 0.00 0.00 0.00 0.00 0.00 0.00 0.00 0.00 0.00 0.00 0.00 0.00 0.00 0.00 0.00 0.00 0.00 0.00 0.00 0.00 0.00 0.00 0.00 0.00 0.00 0.00 0.00 0.00 0.00 0.00 0.00 0.00 0.00 0.00 0.00 0.00 0.00 0.00 0.00 0.00 0.00
0.00 0.00 0.00 0.00 0.00 0.00 0.00 0.00 0.00 0.00 0.00 0.00 0.00 0.00 0.00 0.00 0.00 0.00 0.00 0.00 0.00 0.00 0.00 0.00 0.00 0.00 0.00 0.00 0.00 0.00 0.00 0.00 0.00 0.00 0.00 0.00 0.00 0.00 0.00 0.00 0.00 0.00 0.00 0.00 0.00
0.00 0.00 0.00 0.00 0.00 0.00 0.00 0.00 0.00 0.00 0.00 0.00 0.00 0.00 0.00 0.00 0.00 0.00 0.00 0.00 0.00 0.00 0.00 0.00 0.00 0.00 0.00 0.00 0.00 0.00 0.00 0.00 0.00 0.00 0.00 0.00 0.00 0.00 0.00 0.00 0.00 0.00 0.00 0.00 0.00
0.00 0.00 0.00 0.00 0.00 0.00 0.00 0.00 0.00 0.00 0.00 0.00 0.00 0.00 0.00 0.00 0.00 0.00 0.00 0.00 0.00 0.00 0.00 0.00 0.00 0.00 0.00 0.00 0.00 0.00 0.00 0.00 0.00 0.00 0.00 0.00 0.00 0.00 0.00 0.00 0.00 0.00 0.00 0.00 0.00
0.00 0.00 0.00 0.00 0.00 0.00 0.00 0.00 0.00 0.00 0.00 0.00 0.00 0.00 0.00 0.00 0.00 0.00 0.00 0.00 0.00 0.00 0.00 0.00 0.00 0.00 0.00 0.00 0.00 0.00 0.00 0.00 0.00 0.00 0.00 0.00 0.00 0.00 0.00 0.00 0.00 0.00 0.00 0.00 0.00
0.00 0.00 0.00 0.00 0.00 0.00 0.00 0.00 0.00 0.00 0.00 0.00 0.00 0.00 0.00 0.00 0.00 0.00 0.00 0.00 0.00 0.00 0.00 0.00 0.00 0.00 0.00 0.00 0.00 0.00 0.00 0.00 0.00 0.00 0.00 0.00 0.00 0.00 0.00 0.00 0.00 0.00 0.00 0.00 0.00
0.00 0.00 0.00 0.00 0.00 0.00 0.00 0.00 0.00 0.00 0.00 0.00 0.00 0.00 0.00 0.00 0.00 0.00 0.00 0.00 0.00 0.00 0.00 0.00 0.00 0.00 0.00 0.00 0.00 0.00 0.00 0.00 0.00 0.00 0.00 0.00 0.00 0.00 0.00 0.00 0.00 0.00 0.00 0.00 0.00
0.00 0.00 0.00 0.00 0.00 0.00 0.00 0.00 0.00 0.00 0.00 0.00 0.00 0.00 0.00 0.00 0.00 0.00 0.00 0.00 0.00 0.00 0.00 0.00 0.00 0.00 0.00 0.00 0.00 0.00 0.00 0.00 0.00 0.00 0.00 0.00 0.00 0.00 0.00 0.00 0.00 0.00 0.00 0.00 0.00
0.00 0.00 0.00 0.00 0.00 0.00 0.00 0.00 0.00 0.00 0.00 0.00 0.00 0.00 0.00 0.00 0.00 0.00 0.00 0.00 0.00 0.00 0.00 0.00 0.00 0.00 0.00 0.00 0.00 0.00 0.00 0.00 0.00 0.00 0.00 0.00 0.00 0.00 0.00 0.00 0.00 0.00 0.00 0.00 0.00
0.00 0.00 0.00 0.00 0.00 0.00 0.00 0.00 0.00 0.00 0.00 0.00 0.00 0.00 0.00 0.00 0.00 0.00 0.00 0.00 0.00 0.00 0.00 0.00 0.00 0.00 0.00 0.00 0.00 0.00 0.00 0.00 0.00 0.00 0.00 0.00 0.00 0.00 0.00 0.00 0.00 0.00 0.00 0.00 0.00
0.00 0.00 0.00 0.00 0.00 0.00 0.00 0.00 0.00 0.00 0.00 0.00 0.00 0.00 0.00 0.00 0.00 0.00 0.00 0.00 0.00 0.00 0.00 0.00 0.00 0.00 0.00 0.00 0.00 0.00 0.00 0.00 0.00 0.00 0.00 0.00 0.00 0.00 0.00 0.00 0.00 0.00 0.00 0.00 0.00
0.00 0.00 0.00 0.00 0.00 0.00 0.00 0.00 0.00 0.00 0.00 0.00 0.00 0.00 0.00 0.00 0.00 0.00 0.00 0.00 0.00 0.00 0.00 0.00 0.00 0.00 0.00 0.00 0.00 0.00 0.00 0.00 0.00 0.00 0.00 0.00 0.00 0.00 0.00 0.00 0.00 0.00 0.00 0.00 0.00
0.00 0.00 0.00 0.00 0.00 0.00 0.00 0.00 0.00 0.00 0.00 0.00 0.00 0.00 0.00 0.00 0.00 0.00 0.00 0.00 0.00 0.00 0.00 0.00 0.00 0.00 0.00 0.00 0.00 0.00 0.00 0.00 0.00 0.00 0.00 0.00 0.00 0.00 0.00 0.00 0.00 0.00 0.00 0.00 0.00
MSLP
1018.80 1018.52 1018.25 1017.93 1017.44 1016.83 1016.74 1016.55 1016.04 1015.61 1015.32 1014.90 1014.67 1014.44 1013.99 1013.33 1011.76 1010.78 1009.00 1008.87 1008.54 1008.67 1008.51 1007.71 1007.31 1006.96 1006.63 1005.92 1005.74 1005.33 1003.94 1003.46 1003.44 1003.27 1003.91 1004.73 1004.74 1005.41 1005.79 1006.11 1006.62 1007.13 1007.36 1007.94 1010.18
1018.87 1018.51 1018.11 1017.76 1017.48 1017.11 1016.85 1016.39 1015.87 1015.60 1015.34 1014.90 1014.57 1014.20 1013.79 1013.35 1011.30 1009.06 1008.52 1008.61 1008.67 1008.70 1007.86 1006.93 1006.24 1006.16 1005.42 1005.44 1005.30 1004.53 1003.82 1003.86 1003.95 1003.73 1003.89 1004.56 1004.65 1005.20 1005.59 1005.84 1006.61 1007.65 1008.30 1009.22 1010.20
1018.82 1018.48 1018.11 1017.75 1017.40 1016.97 1016.67 1016.24 1015.88 1015.63 1015.27 1014.99 1014.57 1014.00 1013.54 1012.99 1010.39 1007.82 1008.56 1008.57 1008.67 1008.57 1007.69 1007.04 1006.41 1005.86 1004.88 1005.04 1005.00 1004.76 1004.01 1003.91 1003.65 1003.89 1003.79 1004.20 1004.57 1004.93 1005.13 1005.33 1005.75 1006.84 1008.47 1009.39 1010.17
1018.80 1018.46 1018.14 1017.80 1017.39 1017.05 1016.68 1016.29 1015.83 1015.50 1015.25 1014.91 1014.40 1013.74 1013.19 1011.78 1008.92 1008.19 1008.69 1008.62 1008.65 1008.10 1007.63 1006.67 1005.94 1005.09 1004.47 1004.40 1004.85 1004.50 1004.13 1003.91 1003.66 1003.81 1003.85 1004.08 1004.14 1004.51 1004.83 1005.48 1005.83 1006.89 1008.35 1009.12 1009.71
1018.96 1018.52 1018.10 1017.65 1017.24 1016.95 1016.53 1016.10 1015.81 1015.38 1015.04 1014.71 1014.26 1013.71 1012.49 1010.28 1008.10 1008.45 1008.75 1008.62 1008.08 1007.85 1007.02 1006.31 1005.66 1005.02 1004.33 1004.51 1004.62 1004.41 1003.77 1003.59 1003.46 1003.62 1003.76 1004.04 1004.20 1004.38 1004.86 1005.65 1006.31 1007.34 1008.39 1008.87 1009.22
1018.97 1018.54 1018.11 1017.64 1017.14 1016.65 1016.30 1015.95 1015.65 1015.24 1014.84 1014.55 1014.11 1013.70 1011.79 1009.20 1007.97 1008.35 1008.36 1008.04 1007.39 1007.22 1006.61 1006.32 1005.50 1005.40 1004.77 1004.57 1004.58 1004.50 1004.03 1003.44 1003.31 1003.32 1003.68 1003.92 1004.27 1004.90 1004.91 1005.88 1006.66 1007.43 1008.22 1008.66 1009.01
1018.77 1018.31 1017.85 1017.43 1016.98 1016.51 1016.05 1015.63 1015.24 1014.90 1014.62 1014.39 1014.06 1013.13 1010.87 1008.17 1007.88 1008.20 1008.23 1007.58 1007.42 1007.12 1006.35 1006.18 1005.92 1005.61 1004.98 1004.22 1004.73 1004.41 1003.56 1003.06 1003.25 1003.46 1003.57 1004.01 1004.29 1004.57 1004.97 1005.85 1006.48 1007.08 1007.96 1008.45 1008.88
1018.71 1018.24 1017.68 1017.06 1016.55 1016.14 1015.69 1015.27 1014.87 1014.44 1014.27 1014.17 1013.96 1012.52 1009.20 1008.08 1008.29 1008.15 1007.83 1007.56 1007.26 1007.21 1006.86 1006.49 1006.28 1005.66 1005.11 1004.73 1004.10 1003.84 1003.49 1002.74 1003.17 1003.53 1004.01 1004.15 1003.10 1004.12 1005.22 1005.71 1006.08 1006.73 1007.68 1008.39 1008.86
1018.67 1018.08 1017.49 1016.85 1016.28 1015.74 1015.28 1014.83 1014.30 1013.94 1013.95 1013.86 1013.25 1011.41 1008.09 1008.32 1007.80 1007.14 1007.22 1006.86 1006.64 1006.80 1006.86 1006.84 1006.28 1005.25 1005.00 1004.14 1003.37 1003.39 1002.55 1003.09 1003.13 1003.77 1003.79 1003.74 1003.13 1004.73 1005.19 1005.46 1005.90 1006.47 1007.27 1008.07 1008.65
1018.62 1018.06 1017.47 1016.77 1016.05 1015.39 1014.68 1014.41 1014.01 1013.91 1013.60 1012.87 1012.02 1010.73 1007.91 1006.80 1006.92 1006.97 1007.04 1006.73 1006.15 1006.17 1006.43 1006.24 1005.49 1004.74 1004.15 1003.65 1002.70 1003.02 1002.87 1003.21 1003.32 1003.76 1003.55 1003.24 1003.32 1004.54 1005.23 1005.28 1005.66 1006.08 1006.79 1007.51 1008.10
1018.47 1017.87 1017.31 1016.66 1015.99 1015.36 1013.93 1013.42 1013.31 1012.44 1011.40 1009.20 1008.61 1007.81 1007.27 1007.05 1006.94 1006.51 1006.48 1006.39 1005.74 1005.55 1005.09 1005.23 1004.62 1003.74 1003.18 1003.38 1004.14 1004.05 1003.55 1003.28 1003.47 1004.08 1003.81 1003.65 1003.61 1004.09 1004.81 1005.23 1005.35 1005.60 1006.19 1006.62 1007.44
1018.32 1017.69 1017.09 1016.42 1015.84 1015.24 1014.51 1011.86 1011.44 1011.48 1009.37 1008.06 1007.98 1007.80 1007.48 1007.50 1006.26 1005.83 1006.10 1005.41 1005.14 1004.62 1004.64 1004.79 1003.81 1003.25 1003.29 1004.17 1004.15 1003.89 1003.41 1002.84 1003.39 1003.97 1004.02 1003.57 1003.33 1003.90 1004.34 1004.72 1005.02 1005.29 1005.60 1006.10 1006.69
1018.11 1017.49 1016.90 1016.09 1015.40 1014.79 1013.18 1011.74 1011.55 1011.14 1009.22 1007.23 1007.22 1006.91 1006.62 1007.12 1005.65 1004.85 1005.48 1004.66 1004.47 1004.25 1004.26 1003.53 1003.12 1003.36 1003.85 1003.99 1003.85 1003.30 1003.06 1003.09 1003.51 1003.68 1003.76 1003.46 1002.77 1003.21 1003.91 1004.57 1004.89 1005.15 1005.40 1005.61 1006.12
1017.88 1017.33 1016.86 1015.90 1015.17 1013.51 1011.80 1011.81 1011.50 1011.40 1008.34 1006.74 1006.42 1006.03 1006.49 1006.02 1005.17 1004.83 1004.79 1004.20 1003.99 1003.79 1003.82 1003.47 1003.41 1003.59 1003.62 1003.31 1003.44 1002.63 1003.10 1003.49 1003.47 1003.36 1002.37 1003.24 1001.75 1002.17 1002.80 1003.68 1004.54 1004.69 1005.04 1005.14 1005.56
1017.60 1017.18 1016.88 1016.80 1014.83 1012.78 1012.07 1011.82 1011.42 1010.70 1006.66 1006.09 1005.83 1006.28 1005.85 1005.16 1004.46 1004.73 1004.59 1004.32 1003.60 1003.68 1003.98 1003.20 1003.38 1003.60 1003.02 1002.86 1003.07 1002.89 1003.40 1003.39 1003.28 1002.65 1002.60 1002.54 1002.32 1001.71 1002.54 1002.69 1003.39 1004.10 1004.28 1004.79 1005.05
1017.15 1016.82 1016.58 1015.24 1014.42 1012.60 1012.28 1011.86 1011.21 1008.88 1005.53 1005.02 1005.24 1005.21 1005.10 1004.79 1003.97 1004.39 1004.60 1004.52 1003.47 1003.67 1003.87 1002.73 1003.36 1003.03 1002.53 1002.64 1003.13 1003.20 1003.33 1003.06 1002.86 1002.17 1001.56 1001.65 1002.25 1000.92 1001.30 1002.18 1002.73 1003.55 1003.87 1004.38 1004.70
1016.56 1016.08 1016.36 1014.67 1012.13 1012.36 1011.94 1010.72 1008.62 1006.15 1005.33 1004.65 1004.19 1004.29 1003.93 1003.72 1003.57 1003.71 1003.74 1003.64 1003.20 1003.28 1002.95 1003.02 1003.00 1002.74 1002.69 1002.48 1002.84 1002.99 1002.17 1001.38 1001.37 1000.99 1000.76 1001.49 1001.90 1000.95 1001.46 1002.16 1002.89 1003.12 1003.67 1004.29 1004.81
1015.92 1015.08 1014.34 1013.36 1012.76 1012.50 1011.24 1009.27 1006.75 1005.36 1004.40 1004.38 1003.98 1003.80 1003.34 1002.97 1002.96 1003.10 1003.02 1002.77 1003.01 1002.67 1001.85 1001.99 1002.02 1002.05 1002.22 1001.85 1001.44 1001.78 1001.18 1000.36 1000.01 1000.08 1000.09 1001.57 1001.13 1000.64 1001.94 1002.59 1003.10 1003.11 1003.55 1004.11 1004.91
1015.17 1012.82 1012.63 1012.19 1012.58 1012.33 1010.32 1007.38 1005.19 1004.83 1004.67 1004.14 1003.48 1003.02 1002.77 1002.79 1002.67 1002.61 1002.45 1002.10 1002.28 1002.48 1001.54 1001.23 1000.85 1001.04 1001.49 1001.48 1001.49 1000.99 1001.22 1000.46 1000.06 1000.65 1000.83 1000.39 1000.59 1000.82 1001.59 1002.60 1003.18 1003.33 1003.76 1004.24 1005.10
1014.74 1012.49 1011.13 1011.96 1012.11 1011.22 1009.05 1006.27 1005.38 1005.32 1004.91 1004.19 1002.97 1002.73 1001.83 1002.00 1002.30 1001.97 1001.77 1001.73 1001.79 1002.23 1001.65 1001.04 1000.70 1000.98 1001.35 1001.94 1001.83 1001.17 1000.72 1000.49 1000.34 1000.16 1000.19 999.90 1000.45 1000.32 1001.37 1002.14 1002.84 1003.29 1003.56 1004.08 1005.30
1014.05 1011.52 1011.51 1011.76 1011.47 1009.62 1007.10 1005.63 1005.33 1005.16 1004.97 1004.19 1003.40 1002.80 1002.00 1001.55 1001.50 1001.14 1000.97 1001.32 1001.52 1001.75 1001.70 1001.16 1000.50 1000.88 1001.36 1000.89 1000.16 1001.08 1000.55 1000.42 999.95 1000.15 999.91 999.65 999.55 1000.48 1001.14 1001.43 1002.09 1002.64 1003.33 1003.89 1005.19
1013.48 1010.59 1011.25 1011.54 1009.66 1007.60 1006.25 1005.77 1005.72 1004.86 1004.66 1004.37 1003.86 1003.16 1002.36 1001.85 1001.23 1000.79 1000.68 1000.57 1001.13 1001.13 1001.50 1001.38 1000.41 999.91 1000.11 1000.23 1000.30 999.72 999.59 999.48 999.60 999.66 1000.05 1000.18 999.97 1000.59 1001.30 1001.66 1001.73 1002.33 1003.21 1003.96 1004.99
1013.02 1011.11 1010.88 1010.73 1007.76 1006.74 1006.15 1005.78 1005.46 1004.78 1004.38 1003.95 1003.40 1002.96 1002.51 1001.85 1001.40 1000.63 1000.33 1000.27 1000.56 1000.69 1000.87 1001.01 1000.51 999.38 999.72 1000.62 1000.91 999.91 999.67 999.46 999.18 999.19 999.47 999.56 1000.11 1001.19 1001.30 1001.83 1002.00 1002.39 1003.32 1004.31 1005.37
1013.54 1010.43 1009.76 1009.59 1008.17 1006.47 1005.65 1005.21 1004.84 1004.62 1004.38 1004.07 1003.49 1002.95 1002.45 1001.56 1001.11 1000.33 1000.04 1000.08 1000.40 1000.42 1000.78 1000.95 999.90 999.30 998.96 998.93 998.99 999.23 999.48 999.72 999.04 998.61 998.63 998.97 999.48 1000.41 1001.22 1001.97 1002.53 1002.96 1003.65 1004.60 1005.71
1013.30 1010.71 1010.72 1008.35 1007.41 1006.61 1006.23 1005.54 1004.76 1004.28 1004.30 1003.94 1003.19 1002.95 1002.33 1001.44 1000.69 1000.51 1000.34 1000.17 1000.55 1000.51 1000.65 1000.52 999.81 999.54 999.60 999.80 999.73 999.34 999.03 999.59 999.26 998.75 998.97 999.07 999.45 1000.40 1001.33 1001.93 1002.82 1003.39 1004.22 1005.07 1006.13
1013.32 1012.04 1010.92 1009.49 1008.21 1007.23 1006.28 1005.26 1004.98 1004.48 1004.40 1003.45 1003.39 1002.82 1002.19 1001.87 1001.67 1000.92 1000.46 999.83 999.72 1000.47 1000.28 1000.33 999.73 999.69 999.72 999.91 999.99 999.69 999.34 999.28 999.46 999.50 999.62 999.61 999.65 1000.66 1002.04 1002.48 1002.97 1003.64 1004.32 1005.04 1006.22
1014.15 1013.44 1012.22 1009.26 1007.81 1006.90 1005.63 1005.56 1005.27 1005.41 1004.41 1004.20 1003.75 1003.23 1001.90 1002.23 1002.23 1001.83 1001.37 1000.62 999.99 999.57 999.39 999.65 999.49 999.84 999.49 1000.04 999.98 999.51 999.01 999.00 999.02 999.26 999.35 999.17 999.58 1000.76 1001.56 1002.61 1003.15 1003.95 1004.71 1005.57 1007.10
Thickness
5745 5749 5753 5757 5762 5769 5770 5773 5778 5783 5786 5790 5793 5796 5801 5807 5822 5833 5835 5846 5851 5852 5855 5858 5857 5857 5859 5852 5856 5857 5830 5818 5824 5830 5829 5842 5834 5843 5847 5832 5833 5831 5828 5830 5817
5741 5746 5752 5756 5760 5764 5767 5772 5778 5781 5784 5789 5793 5797 5801 5806 5824 5834 5849 5850 5851 5852 5853 5851 5848 5855 5850 5848 5851 5845 5829 5825 5844 5847 5839 5840 5841 5838 5832 5829 5823 5819 5825 5822 5814
5739 5743 5748 5753 5757 5762 5766 5771 5776 5779 5783 5786 5791 5797 5802 5808 5820 5837 5848 5849 5850 5853 5858 5857 5857 5852 5845 5852 5847 5843 5828 5845 5851 5854 5856 5845 5841 5848 5834 5823 5833 5822 5815 5815 5809
5735 5740 5744 5748 5754 5758 5763 5767 5773 5778 5781 5785 5791 5797 5803 5815 5798 5842 5845 5848 5849 5854 5853 5852 5850 5843 5842 5837 5849 5833 5849 5852 5855 5859 5853 5843 5854 5843 5843 5835 5847 5838 5826 5818 5809
5729 5735 5740 5745 5750 5755 5760 5766 5770 5776 5780 5784 5789 5795 5808 5809 5820 5842 5843 5845 5851 5851 5847 5845 5840 5843 5835 5842 5845 5838 5851 5859 5862 5860 5857 5857 5846 5845 5842 5847 5847 5835 5824 5817 5814
5724 5730 5735 5741 5747 5753 5758 5763 5768 5773 5778 5782 5787 5792 5805 5794 5840 5840 5842 5846 5850 5848 5848 5849 5846 5851 5843 5841 5837 5847 5852 5858 5862 5860 5859 5848 5847 5844 5848 5848 5836 5830 5820 5819 5815
5722 5728 5733 5738 5743 5749 5756 5762 5767 5772 5776 5780 5784 5792 5799 5810 5839 5839 5841 5844 5849 5848 5842 5853 5855 5844 5849 5841 5852 5848 5841 5857 5856 5857 5852 5857 5834 5833 5852 5846 5834 5831 5824 5821 5816
5719 5725 5731 5738 5743 5748 5754 5760 5765 5771 5774 5777 5780 5792 5799 5833 5833 5833 5840 5839 5849 5851 5848 5855 5856 5847 5843 5854 5850 5839 5844 5830 5852 5853 5852 5849 5833 5848 5853 5845 5836 5834 5825 5819 5816
5716 5722 5729 5736 5742 5748 5754 5758 5764 5769 5771 5774 5781 5790 5799 5828 5822 5838 5841 5832 5842 5845 5846 5849 5847 5839 5842 5831 5831 5837 5826 5824 5835 5852 5848 5847 5841 5843 5853 5847 5837 5835 5828 5820 5816
5712 5718 5725 5733 5741 5747 5755 5758 5761 5763 5768 5775 5782 5779 5808 5812 5824 5831 5838 5838 5832 5834 5827 5829 5831 5825 5832 5829 5811 5816 5824 5827 5823 5840 5848 5845 5844 5843 5846 5846 5840 5838 5833 5825 5820
5708 5715 5721 5728 5737 5743 5755 5764 5766 5767 5773 5790 5794 5796 5803 5817 5826 5823 5832 5827 5832 5826 5808 5824 5812 5807 5831 5836 5826 5824 5824 5823 5834 5841 5838 5835 5838 5843 5846 5843 5841 5841 5836 5834 5826
5703 5710 5717 5725 5733 5739 5747 5764 5767 5766 5770 5794 5793 5792 5802 5806 5800 5816 5830 5814 5814 5803 5817 5809 5803 5834 5842 5829 5825 5825 5822 5831 5838 5840 5835 5837 5838 5844 5846 5844 5845 5842 5840 5837 5834
5700 5706 5713 5722 5731 5738 5750 5759 5765 5768 5765 5785 5789 5790 5797 5799 5799 5810 5818 5821 5809 5804 5806 5806 5823 5835 5824 5819 5816 5827 5824 5825 5819 5834 5839 5835 5834 5839 5846 5844 5846 5846 5847 5845 5839
5697 5702 5709 5719 5730 5741 5752 5755 5760 5762 5758 5771 5777 5789 5793 5800 5791 5820 5825 5819 5810 5800 5808 5810 5826 5819 5816 5816 5826 5819 5838 5829 5824 5820 5818 5836 5813 5839 5847 5839 5836 5841 5842 5845 5843
5694 5698 5704 5707 5726 5737 5745 5749 5756 5756 5740 5771 5774 5797 5794 5789 5800 5799 5825 5814 5799 5801 5803 5803 5809 5806 5809 5820 5833 5821 5834 5828 5828 5829 5826 5825 5814 5838 5842 5835 5837 5840 5846 5847 5849
5692 5695 5701 5713 5720 5735 5738 5744 5746 5738 5731 5763 5776 5773 5774 5784 5794 5799 5800 5813 5821 5801 5803 5815 5827 5825 5827 5835 5832 5835 5825 5828 5831 5835 5809 5827 5814 5832 5841 5840 5843 5845 5848 5848 5850
5691 5696 5697 5710 5732 5731 5736 5740 5733 5732 5766 5757 5765 5774 5777 5776 5782 5787 5785 5785 5782 5769 5776 5797 5805 5826 5832 5817 5829 5825 5824 5805 5798 5806 5805 5833 5813 5833 5850 5851 5844 5844 5845 5846 5848
5691 5700 5708 5715 5721 5725 5733 5732 5715 5745 5754 5770 5768 5771 5764 5780 5781 5782 5782 5778 5794 5795 5793 5780 5774 5810 5829 5824 5823 5824 5834 5817 5787 5800 5820 5826 5804 5835 5850 5851 5848 5851 5849 5848 5839
5691 5712 5712 5719 5717 5721 5727 5721 5736 5745 5756 5755 5766 5759 5762 5773 5777 5778 5779 5783 5793 5799 5786 5787 5794 5832 5832 5839 5836 5827 5810 5852 5829 5830 5807 5829 5837 5853 5854 5841 5840 5840 5842 5838 5833
5688 5704 5716 5715 5716 5721 5723 5722 5737 5749 5754 5759 5750 5763 5759 5767 5765 5773 5776 5793 5790 5801 5817 5806 5787 5819 5825 5829 5832 5831 5848 5816 5826 5787 5780 5817 5812 5821 5831 5831 5835 5832 5836 5839 5833
5689 5703 5707 5710 5715 5718 5718 5731 5738 5752 5754 5750 5751 5753 5764 5766 5773 5774 5779 5790 5798 5797 5809 5809 5809 5801 5813 5811 5823 5818 5820 5828 5837 5825 5799 5798 5819 5850 5839 5843 5837 5840 5840 5842 5833
5684 5699 5704 5706 5709 5726 5723 5729 5730 5745 5755 5751 5755 5756 5758 5767 5768 5774 5773 5788 5805 5806 5785 5808 5813 5798 5810 5834 5842 5845 5837 5841 5812 5807 5820 5813 5818 5856 5847 5845 5848 5843 5843 5844 5838
5678 5690 5701 5702 5708 5715 5726 5725 5734 5739 5745 5748 5750 5761 5769 5765 5757 5778 5784 5805 5807 5801 5795 5807 5798 5795 5799 5813 5824 5827 5837 5844 5848 5845 5816 5808 5808 5843 5849 5843 5847 5843 5842 5838 5831
5667 5686 5695 5698 5711 5718 5719 5722 5727 5746 5744 5750 5752 5764 5762 5766 5779 5776 5783 5797 5804 5806 5806 5809 5813 5809 5799 5816 5837 5822 5828 5833 5841 5824 5823 5828 5829 5835 5838 5833 5833 5838 5839 5834 5825
5664 5680 5677 5692 5703 5713 5716 5720 5723 5728 5745 5752 5751 5755 5759 5758 5773 5772 5784 5789 5794 5795 5802 5807 5793 5813 5815 5819 5823 5826 5831 5826 5825 5837 5816 5815 5825 5832 5837 5836 5833 5836 5833 5826 5816
5654 5662 5674 5683 5695 5700 5699 5717 5719 5730 5734 5743 5742 5758 5768 5759 5764 5767 5781 5792 5789 5794 5796 5805 5791 5809 5801 5817 5818 5813 5827 5829 5827 5828 5826 5828 5826 5843 5835 5835 5831 5828 5827 5822 5815
5645 5651 5657 5680 5695 5699 5712 5713 5717 5723 5740 5745 5748 5752 5766 5767 5776 5783 5789 5796 5802 5799 5800 5801 5800 5792 5788 5809 5810 5798 5821 5826 5831 5835 5831 5817 5836 5837 5829 5821 5823 5820 5820 5815 5802